When you browse on this site, cookies collect data to enhance your experience and personalize the content and advertising you see.
Visit our Privacy Policy to learn more. By continuing to use the site, you agree to this use of cookies and data.

Hourly Weather Pazardzhik

Today, 10 July, Friday

Time Temperature Precipitation Wind Pressure Humidity
00:00 +20°C° 0 mm 1 mps 746 mmHg 73%
01:00 +20°C° 0 mm 1 mps 745 mmHg 76%
02:00 +19°C° 0 mm 1 mps 745 mmHg 78%
03:00 +19°C° 0 mm 1 mps 745 mmHg 80%
04:00 +19°C° 0 mm 1 mps 745 mmHg 82%
05:00 +18°C° 0 mm 1 mps 745 mmHg 83%
06:00 +21°C° 0 mm 1 mps 745 mmHg 76%
07:00 +23°C° 0 mm 1 mps 746 mmHg 69%
08:00 +25°C° 0 mm 1 mps 746 mmHg 62%
09:00 +26°C° 0 mm 1 mps 746 mmHg 57%
10:00 +27°C° 0 mm 2 mps 746 mmHg 52%
11:00 +29°C° 0 mm 2 mps 746 mmHg 47%
12:00 +29°C° 0 mm 3 mps 745 mmHg 45%
13:00 +30°C° 0 mm 3 mps 745 mmHg 43%
14:00 +31°C° 0 mm 3 mps 745 mmHg 41%
15:00 +31°C° 0 mm 3 mps 744 mmHg 42%
16:00 +31°C° 0 mm 3 mps 744 mmHg 42%
17:00 +30°C° 0 mm 3 mps 744 mmHg 43%
18:00 +28°C° 0 mm 3 mps 744 mmHg 50%
19:00 +26°C° 0 mm 2 mps 744 mmHg 57%
20:00 +24°C° 0 mm 2 mps 744 mmHg 64%
21:00 +23°C° 0 mm 2 mps 744 mmHg 66%
22:00 +21°C° 0 mm 2 mps 745 mmHg 68%
23:00 +21°C° 0 mm 1 mps 745 mmHg 70%

Tomorrow, 11 July, Saturday

Time Temperature Precipitation Wind Pressure Humidity
00:00 +20°C° 0 mm 1 mps 745 mmHg 73%
01:00 +19°C° 0 mm 1 mps 745 mmHg 76%
02:00 +19°C° 0 mm 1 mps 744 mmHg 79%
03:00 +18°C° 0 mm 1 mps 744 mmHg 81%
04:00 +18°C° 0 mm 1 mps 744 mmHg 82%
05:00 +18°C° 0 mm 1 mps 744 mmHg 84%
06:00 +20°C° 0 mm 1 mps 744 mmHg 76%
07:00 +22°C° 0 mm 1 mps 744 mmHg 69%
08:00 +24°C° 0 mm 1 mps 744 mmHg 62%
09:00 +25°C° 0 mm 1 mps 744 mmHg 57%
10:00 +26°C° 0 mm 2 mps 744 mmHg 51%
11:00 +28°C° 0 mm 2 mps 744 mmHg 46%
12:00 +29°C° 0 mm 2 mps 743 mmHg 44%
13:00 +30°C° 0 mm 2 mps 743 mmHg 41%
14:00 +31°C° 0 mm 3 mps 743 mmHg 39%
15:00 +31°C° 0 mm 3 mps 742 mmHg 41%
16:00 +31°C° 0 mm 2 mps 742 mmHg 42%
17:00 +31°C° 0 mm 2 mps 742 mmHg 43%
18:00 +28°C° 0 mm 2 mps 742 mmHg 52%
19:00 +26°C° 0 mm 1 mps 742 mmHg 60%
20:00 +24°C° 0 mm 1 mps 741 mmHg 68%
21:00 +24°C° 0 mm 1 mps 742 mmHg 72%
22:00 +23°C° 0 mm 1 mps 742 mmHg 75%
23:00 +22°C° 0 mm 1 mps 742 mmHg 79%

Day after tomorrow, 12 July, Sunday

Time Temperature Precipitation Wind Pressure Humidity
00:00 +21°C° 0 mm 1 mps 742 mmHg 82%
01:00 +21°C° 0 mm 1 mps 742 mmHg 86%
02:00 +20°C° 0 mm 1 mps 741 mmHg 89%
03:00 +20°C° 0 mm 1 mps 741 mmHg 90%
04:00 +20°C° 0 mm 1 mps 741 mmHg 90%
05:00 +20°C° 0 mm 1 mps 741 mmHg 91%
06:00 +22°C° 0 mm 1 mps 742 mmHg 83%
07:00 +24°C° 0 mm 1 mps 742 mmHg 75%
08:00 +26°C° 0 mm 2 mps 742 mmHg 67%
09:00 +28°C° 0 mm 2 mps 742 mmHg 60%
10:00 +29°C° 0 mm 2 mps 742 mmHg 54%
11:00 +31°C° 0 mm 2 mps 743 mmHg 47%
12:00 +31°C° 0 mm 3 mps 742 mmHg 46%
13:00 +33°C° 0 mm 3 mps 742 mmHg 44%
14:00 +33°C° 0 mm 3 mps 742 mmHg 43%
15:00 +33°C° 0 mm 3 mps 742 mmHg 45%
16:00 +31°C° 0 mm 3 mps 741 mmHg 48%
17:00 +31°C° 0 mm 3 mps 741 mmHg 50%
18:00 +29°C° 0.1 mm 3 mps 741 mmHg 60%
19:00 +26°C° 0.1 mm 3 mps 742 mmHg 69%
20:00 +24°C° 0.1 mm 2 mps 742 mmHg 79%
21:00 +23°C° 0 mm 2 mps 742 mmHg 80%
22:00 +21°C° 0 mm 2 mps 742 mmHg 82%
23:00 +21°C° 0 mm 3 mps 743 mmHg 83%

13 July, Monday

Time Temperature Precipitation Wind Pressure Humidity
00:00 +20°C° 0 mm 3 mps 743 mmHg 82%
01:00 +19°C° 0 mm 3 mps 743 mmHg 82%
02:00 +19°C° 0 mm 3 mps 743 mmHg 81%
03:00 +18°C° 0 mm 3 mps 743 mmHg 80%
04:00 +18°C° 0 mm 3 mps 743 mmHg 78%
05:00 +17°C° 0 mm 3 mps 743 mmHg 76%
06:00 +19°C° 0 mm 3 mps 743 mmHg 70%
07:00 +20°C° 0 mm 3 mps 743 mmHg 64%
08:00 +21°C° 0 mm 4 mps 743 mmHg 58%
09:00 +22°C° 0 mm 4 mps 743 mmHg 53%
10:00 +25°C° 0 mm 4 mps 743 mmHg 48%
11:00 +26°C° 0 mm 4 mps 743 mmHg 43%
12:00 +27°C° 0 mm 3 mps 743 mmHg 41%
13:00 +28°C° 0 mm 3 mps 743 mmHg 39%
14:00 +29°C° 0 mm 3 mps 743 mmHg 37%
15:00 +28°C° 0 mm 3 mps 743 mmHg 40%
16:00 +28°C° 0 mm 3 mps 743 mmHg 42%
17:00 +28°C° 0 mm 3 mps 742 mmHg 44%
18:00 +26°C° 0 mm 3 mps 743 mmHg 53%
19:00 +24°C° 0 mm 2 mps 743 mmHg 62%
20:00 +21°C° 0 mm 2 mps 743 mmHg 71%
21:00 +20°C° 0 mm 2 mps 743 mmHg 74%
22:00 +20°C° 0 mm 1 mps 743 mmHg 76%
23:00 +20°C° 0 mm 1 mps 744 mmHg 79%

14 July, Tuesday

Time Temperature Precipitation Wind Pressure Humidity
00:00 +19°C° 0 mm 1 mps 744 mmHg 80%
01:00 +19°C° 0 mm 1 mps 744 mmHg 81%
02:00 +19°C° 0 mm 1 mps 744 mmHg 82%
03:00 +16°C° 0 mm 0 mps 744 mmHg 82%
04:00 +16°C° 0 mm 0 mps 744 mmHg 82%
05:00 +16°C° 0 mm 0 mps 743 mmHg 83%
06:00 +17°C° 0 mm 0 mps 744 mmHg 77%
07:00 +20°C° 0 mm 1 mps 744 mmHg 70%
08:00 +22°C° 0 mm 1 mps 744 mmHg 64%
09:00 +23°C° 0 mm 2 mps 744 mmHg 58%
10:00 +24°C° 0 mm 2 mps 744 mmHg 52%
11:00 +26°C° 0 mm 3 mps 744 mmHg 47%
12:00 +26°C° 0 mm 3 mps 743 mmHg 44%
13:00 +27°C° 0 mm 3 mps 743 mmHg 42%
14:00 +28°C° 0 mm 3 mps 743 mmHg 39%
15:00 +28°C° 0 mm 3 mps 743 mmHg 40%
16:00 +28°C° 0 mm 3 mps 742 mmHg 40%
17:00 +28°C° 0 mm 3 mps 742 mmHg 40%
18:00 +26°C° 0 mm 2 mps 742 mmHg 48%
19:00 +24°C° 0 mm 2 mps 742 mmHg 55%
20:00 +21°C° 0 mm 2 mps 742 mmHg 63%
21:00 +20°C° 0 mm 2 mps 743 mmHg 66%
22:00 +20°C° 0 mm 1 mps 743 mmHg 69%
23:00 +19°C° 0 mm 1 mps 743 mmHg 72%

15 July, Wednesday

Time Temperature Precipitation Wind Pressure Humidity
00:00 +18°C° 0 mm 1 mps 743 mmHg 74%
01:00 +18°C° 0 mm 1 mps 743 mmHg 75%
02:00 +16°C° 0 mm 1 mps 744 mmHg 77%
03:00 +16°C° 0 mm 1 mps 744 mmHg 78%
04:00 +16°C° 0 mm 1 mps 744 mmHg 79%
05:00 +15°C° 0 mm 1 mps 744 mmHg 80%
06:00 +18°C° 0 mm 1 mps 744 mmHg 73%
07:00 +20°C° 0 mm 1 mps 744 mmHg 66%
08:00 +23°C° 0 mm 1 mps 744 mmHg 59%
09:00 +24°C° 0 mm 1 mps 744 mmHg 55%
10:00 +26°C° 0 mm 2 mps 744 mmHg 50%
11:00 +27°C° 0 mm 2 mps 744 mmHg 46%
12:00 +28°C° 0 mm 2 mps 744 mmHg 43%
13:00 +29°C° 0 mm 2 mps 743 mmHg 41%
14:00 +30°C° 0 mm 2 mps 743 mmHg 38%
15:00 +30°C° 0 mm 2 mps 743 mmHg 39%
16:00 +30°C° 0 mm 2 mps 742 mmHg 39%
17:00 +30°C° 0 mm 2 mps 742 mmHg 39%
18:00 +27°C° 0 mm 2 mps 742 mmHg 45%
19:00 +25°C° 0 mm 2 mps 742 mmHg 51%
20:00 +23°C° 0 mm 1 mps 742 mmHg 57%
21:00 +22°C° 0 mm 1 mps 742 mmHg 59%
22:00 +20°C° 0 mm 2 mps 743 mmHg 61%
23:00 +19°C° 0 mm 2 mps 743 mmHg 63%
Show more